CAPE
488 726 1080 1282 1398 1473 1603 1763 1857 1917 1976 2033 2065 2088 2132 2168 2204 2216 2216 2213 2133 2043 2026 2065 2076 2040 2022 2069 2131 1978 1527 1246 810 0 0 0 0 0 0 0 0 0 0 0 0 0 0 0 0 1 1 17 0 0 0 116 6 15 0 1 0 1 0
445 596 966 1236 1421 1488 1558 1706 1853 1914 1960 2010 2047 2075 2112 2158 2198 2218 2228 2223 2176 2106 2069 2089 2099 2084 2055 2104 2120 1885 1482 1227 670 18 0 0 1 0 0 0 0 0 0 0 0 0 0 0 0 0 0 104 28 0 0 5 1 0 0 0 0 0 3
392 578 848 1120 1336 1445 1501 1598 1766 1875 1904 1953 1990 2027 2066 2104 2154 2209 2238 2210 2189 2158 2124 2123 2141 2126 2074 2128 2092 1742 1602 1244 551 0 0 0 0 0 0 0 0 0 0 0 0 0 0 0 0 0 0 5 20 0 0 0 0 0 0 0 0 0 0
385 577 835 1023 1185 1318 1393 1482 1646 1819 1880 1888 1915 1973 2030 2082 2129 2199 2232 2175 2141 2167 2169 2155 2142 2108 2072 2125 2132 1679 1299 866 140 0 0 0 0 0 0 0 0 0 0 0 0 0 0 0 0 0 289 0 0 0 0 0 0 0 0 0 0 0 0
359 536 842 1036 1118 1175 1281 1394 1535 1713 1836 1857 1861 1888 1973 2054 2114 2174 2212 2160 2080 2099 2126 2084 2044 2059 2112 2182 2076 1498 829 207 0 0 0 0 0 0 0 0 0 0 0 0 0 2 1 0 0 0 0 0 0 0 0 0 0 0 0 0 0 0 0
328 483 770 1040 1156 1184 1240 1356 1436 1586 1742 1822 1839 1844 1899 2022 2095 2138 2176 2164 2098 2066 2077 2061 2058 2112 2206 2224 1861 1312 772 51 0 0 0 0 0 0 0 0 0 0 0 0 0 0 0 0 0 0 0 0 0 0 0 0 0 0 0 0 0 0 0
296 417 630 894 1098 1200 1235 1324 1436 1499 1635 1765 1814 1847 1883 1970 2074 2108 2143 2173 2150 2102 2069 2087 2120 2122 2143 2134 1906 1460 948 70 0 0 0 0 0 0 0 0 0 0 0 0 0 0 0 0 0 0 0 0 0 0 0 0 0 0 0 0 0 0 0
259 366 509 674 889 1062 1195 1268 1362 1474 1521 1640 1700 1804 1865 1919 1974 2038 2114 2171 2197 2142 2070 2035 2055 2106 2122 1995 1838 1573 1113 0 0 0 0 0 0 0 0 0 0 0 0 0 0 0 0 0 0 0 0 0 0 0 0 0 0 0 0 0 0 0 0
234 318 431 549 628 798 965 1106 1216 1305 1437 1476 1521 1582 1638 1711 1790 1921 2065 2149 2163 2132 2054 1986 1973 1996 1988 1906 1747 1392 1171 232 0 0 0 0 0 0 0 0 0 0 0 0 0 0 0 0 0 0 0 0 0 0 0 0 0 0 0 0 0 0 0
233 293 355 430 521 617 728 897 967 1095 1269 1356 1412 1467 1500 1524 1665 1841 2002 2090 2105 2067 2038 1943 1870 1882 1943 1861 1674 1384 1111 0 0 0 0 0 0 0 0 0 0 0 0 0 0 0 0 0 0 0 0 0 0 0 0 0 0 0 0 0 0 0 0
192 104 167 355 411 503 638 681 757 880 986 1176 1340 1380 1401 1426 1633 1826 1968 2051 2061 2038 2005 1951 1808 1765 1804 1784 1677 1492 1300 43 0 0 0 0 0 0 0 0 0 0 0 0 0 0 0 0 0 0 0 0 0 0 0 0 0 0 0 0 0 0 0
153 0 192 286 363 428 478 570 636 705 789 984 1178 1292 1341 1401 1604 1806 1963 2020 2030 2002 1942 1906 1835 1770 1744 1717 1627 1494 1242 234 2 308 0 0 0 0 0 0 0 0 0 0 0 0 0 0 0 0 0 0 0 0 0 0 0 0 0 0 0 0 0
1 0 5 12 184 343 416 480 504 589 728 823 996 1148 1274 1344 1524 1752 1916 1998 1999 1977 1920 1841 1806 1761 1697 1658 1655 1514 824 456 1 57 0 0 0 0 0 0 0 0 0 0 0 0 0 0 0 0 0 0 0 0 0 0 0 0 0 0 0 0 0
104 0 0 14 209 323 345 383 470 541 662 755 843 1023 1168 1253 1425 1660 1858 1964 1990 1983 1920 1846 1772 1768 1731 1604 1429 1460 1197 610 108 0 0 0 16 0 0 0 0 0 0 0 0 0 0 0 0 0 0 0 0 0 0 0 0 0 0 0 0 0 0
2 1 238 333 360 348 380 416 446 496 611 702 760 848 1015 1176 1300 1502 1738 1893 1981 2007 1986 1913 1834 1727 1646 1511 1499 1376 1253 947 297 252 0 0 0 0 0 0 0 0 0 0 0 0 0 0 0 0 0 0 0 0 0 0 0 0 0 0 0 0 0
9 14 86 307 379 417 430 448 473 470 499 632 736 811 887 1041 1201 1345 1561 1781 1922 1987 2000 1953 1835 1755 1700 1587 1473 1373 1424 1170 484 418 227 0 0 0 0 0 0 0 0 0 0 0 0 0 0 0 0 0 0 0 0 0 0 0 0 0 0 0 0
17 34 22 53 68 369 416 448 447 454 494 613 726 812 888 933 1008 1196 1397 1619 1807 1914 1953 1879 1821 1785 1708 1625 1582 1536 1372 1040 761 671 46 136 0 0 0 0 1 0 0 0 0 0 0 0 0 0 0 0 0 0 0 0 0 0 0 0 24 30 0
181 283 323 212 413 436 464 488 504 504 537 680 790 801 849 929 1019 1136 1343 1507 1680 1776 1808 1829 1841 1845 1786 1679 1551 1531 1355 1244 848 598 421 296 0 0 0 0 0 1 0 0 0 0 0 0 0 0 0 0 0 0 0 0 0 0 0 0 0 22 28
35 90 389 434 472 522 554 580 598 572 608 652 774 1002 1010 1025 1122 1234 1343 1460 1604 1691 1744 1791 1816 1824 1737 1597 1551 1486 1324 1276 1118 1076 740 346 129 0 0 0 1 2 0 0 0 0 0 0 0 0 0 0 0 1 0 0 215 26 16 0 0 0 0
44 422 510 644 826 1016 1042 998 1044 1006 1015 1100 1174 1114 1038 1199 1243 1290 1366 1482 1559 1633 1668 1663 1704 1718 1658 1597 1512 1396 1526 1266 1212 810 717 424 0 1 0 0 4 31 8 5 0 0 31 0 0 0 0 0 0 6 8 273 310 322 286 81 0 0 0
475 701 771 950 1209 1352 1483 1501 1576 1549 1453 1377 1212 1047 1028 1244 1368 1444 1474 1502 1582 1630 1635 1623 1625 1613 1586 1582 1468 1528 1442 1461 1336 950 875 474 71 0 0 0 17 52 38 10 0 82 337 314 38 1 26 36 48 30 36 305 378 404 409 416 184 0 0
93 100 92 332 363 562 908 1094 1225 1449 1646 1505 1393 1323 1269 1260 1337 1442 1521 1573 1634 1661 1641 1640 1617 1612 1557 1515 1512 1451 1176 1290 932 838 657 104 0 0 0 11 50 79 152 221 278 346 397 338 9 46 103 110 87 61 52 375 467 476 504 474 245 0 0
0 0 0 0 3 41 549 946 1227 1439 1630 1585 1589 1501 1418 1427 1429 1444 1483 1520 1574 1622 1653 1644 1649 1685 1642 1576 1606 1442 1056 996 798 520 112 65 0 0 14 60 107 150 274 349 400 434 433 349 330 282 110 140 142 44 362 458 544 541 452 0 0 0 0
19 9 136 347 458 562 660 1167 1408 1631 1745 1696 1611 1547 1529 1456 1431 1417 1459 1518 1543 1588 1635 1642 1675 1688 1686 1648 1639 1205 991 900 739 586 442 9 0 5 50 136 223 312 440 477 503 523 502 421 344 290 275 340 61 428 548 607 457 0 0 0 0 0 0
882 1088 1132 974 807 800 1065 1410 1561 1713 1747 1610 1554 1492 1600 1519 1450 1436 1442 1458 1449 1480 1523 1547 1585 1612 1622 1614 1585 1399 1016 938 818 648 528 419 27 48 129 276 355 430 486 577 615 626 590 416 320 345 386 425 550 597 489 348 0 0 0 0 0 0 18
1439 1519 1520 1366 1248 1184 1334 1461 1412 1534 1661 1565 1564 1409 1459 1504 1480 1436 1420 1362 1375 1374 1411 1452 1483 1463 1399 1392 1294 1058 936 723 614 452 485 8 20 235 243 389 476 552 579 655 710 648 460 320 323 403 495 503 500 478 333 102 0 0 0 0 37 64 0
1569 1580 1575 1560 1509 1574 1495 1506 1379 1346 1477 1470 1496 1510 1540 1509 1429 1378 1345 1337 1313 1334 1410 1447 1348 1231 1189 1226 1238 1054 778 695 636 658 479 369 259 331 444 375 343 412 555 592 490 395 373 334 378 454 482 437 296 61 0 0 0 0 28 61 51 0 0
1635 1766 1729 1795 1597 1588 1592 1582 1383 1343 1394 1536 1734 1752 1649 1525 1361 1301 1260 1240 1291 1358 1430 1369 1200 1106 1108 1106 1014 790 688 657 640 660 578 564 480 535 628 702 707 571 446 451 533 608 607 506 428 508 504 333 180 0 0 75 12 0 0 0 0 0 0
1372 1505 1669 1676 1699 1676 1600 1593 1494 1568 1735 1852 1882 1816 1632 1440 1324 1248 1264 1342 1367 1358 1330 1205 1130 1080 1030 946 801 711 677 647 751 803 793 791 925 981 991 979 1051 1058 964 959 1014 960 778 557 501 440 436 353 254 0 108 193 42 50 0 0 0 0 0
1099 1392 1514 1562 1441 1430 1460 1602 1674 1816 1935 1946 1812 1679 1524 1362 1270 1278 1339 1481 1508 1441 1311 1208 1124 987 869 773 747 715 703 684 697 785 871 919 822 975 1054 1092 1176 1356 1355 1247 1178 997 794 538 453 419 378 0 0 0 0 193 147 47 0 0 0 0 0
983 1236 1339 1397 1407 1480 1672 1736 1850 1908 1976 1849 1685 1507 1392 1289 1230 1371 1620 1606 1452 1326 1174 1097 998 937 933 858 769 724 701 727 754 801 825 760 719 764 839 1049 1231 1404 1497 1474 1214 920 746 733 762 343 0 0 0 56 198 223 123 0 0 0 0 0 0
1159 1245 1266 1318 1402 1612 1830 1924 1929 1954 1920 1643 1478 1346 1257 1247 1432 1650 1602 1335 1127 989 876 848 841 872 970 918 770 715 709 648 644 498 215 342 756 896 992 1050 1176 1317 1398 1327 1263 1264 1180 884 755 489 0 3 59 116 280 181 101 99 18 0 0 0 0
1575 1448 1494 1536 1566 1754 1943 2016 1961 1853 1696 1508 1248 1253 1268 1434 1676 1596 1353 1100 907 779 706 621 605 693 773 873 801 779 756 675 485 425 570 745 886 950 996 1067 1198 1259 1211 1110 1103 1081 996 850 600 194 0 106 164 328 237 179 157 0 0 0 0 0 0
1584 1530 1544 1698 1759 1862 1982 1988 1923 1794 1614 1468 1272 1342 1482 1660 1685 1441 1079 809 659 533 405 19 32 134 499 671 744 707 672 320 417 623 692 863 1029 1115 1183 1260 1204 1155 991 897 875 885 788 495 267 0 0 220 339 268 245 187 0 0 0 0 0 0 0
1350 1502 1496 1470 1538 1720 1796 1824 1777 1662 1564 1464 1389 1491 1636 1614 1450 1085 766 665 578 604 601 641 560 37 357 588 453 24 11 11 127 59 0 550 711 811 865 999 1111 1062 978 816 682 576 444 204 0 0 211 294 312 236 101 0 0 0 0 0 0 0 0
1241 1194 1313 1365 1429 1432 1483 1569 1558 1561 1489 1453 1474 1540 1559 1389 1086 726 670 682 588 434 344 101 308 5 9 1 0 0 0 0 0 0 0 0 303 429 583 704 731 637 587 594 514 398 375 270 244 315 318 146 0 0 0 0 0 0 0 0 0 0 0
1030 998 1216 1276 1254 1252 1240 1300 1359 1408 1377 1375 1356 1267 984 882 763 694 698 887 752 501 0 273 250 0 0 0 0 0 0 0 0 0 0 102 336 493 573 574 468 492 491 462 495 507 381 118 0 0 0 0 0 0 0 0 0 0 0 0 0 0 0
1016 959 1147 1301 1246 1176 1106 1112 1185 1232 1232 1243 1136 969 903 945 1029 932 947 949 863 684 620 165 5 0 0 0 0 28 183 0 0 0 0 349 448 478 475 452 467 474 513 501 408 252 102 0 0 0 0 0 0 0 0 0 0 0 0 0 0 0 0
Wind_Speed
25 25 24 24 23 22 19 17 18 20 21 22 22 23 24 23 23 23 22 23 23 23 24 25 26 26 27 27 27 28 28 28 26 nan nan nan nan nan nan nan nan nan nan nan nan nan nan nan nan nan nan nan nan nan nan 29 nan nan nan nan nan nan nan
21 21 22 21 21 22 22 20 21 23 24 26 26 25 23 23 23 23 23 23 23 24 24 24 25 25 26 26 27 27 27 27 26 nan nan nan nan nan nan nan nan nan nan nan nan nan nan nan nan nan nan 27 nan nan nan nan nan nan nan nan nan nan nan
19 20 20 20 22 24 25 22 23 24 25 25 25 25 23 23 23 25 24 23 23 23 23 23 24 25 25 26 27 27 27 27 27 nan nan nan nan nan nan nan nan nan nan nan nan nan nan nan nan nan nan nan nan nan nan nan nan nan nan nan nan nan nan
20 22 22 23 26 27 26 27 30 29 26 25 23 22 21 21 21 22 22 23 24 24 24 24 25 26 26 27 28 29 29 29 29 nan nan nan nan nan nan nan nan nan nan nan nan nan nan nan nan nan 27 nan nan nan nan nan nan nan nan nan nan nan nan
21 22 21 21 24 24 23 25 27 28 27 25 22 20 18 18 19 18 17 18 20 23 25 27 27 27 27 28 28 30 32 32 nan nan nan nan nan nan nan nan nan nan nan nan nan nan nan nan nan nan nan nan nan nan nan nan nan nan nan nan nan nan nan
23 24 23 22 25 27 26 26 26 27 27 24 22 19 17 18 17 17 17 18 19 20 22 25 28 29 30 31 31 32 32 nan nan nan nan nan nan nan nan nan nan nan nan nan nan nan nan nan nan nan nan nan nan nan nan nan nan nan nan nan nan nan nan
23 25 23 23 27 28 27 26 25 25 24 22 19 16 16 17 18 18 19 19 21 24 27 29 30 31 32 35 35 37 36 nan nan nan nan nan nan nan nan nan nan nan nan nan nan nan nan nan nan nan nan nan nan nan nan nan nan nan nan nan nan nan nan
24 23 23 26 27 26 25 26 27 26 22 17 15 14 15 16 17 18 20 22 24 25 26 29 31 34 36 38 39 40 38 nan nan nan nan nan nan nan nan nan nan nan nan nan nan nan nan nan nan nan nan nan nan nan nan nan nan nan nan nan nan nan nan
22 23 25 25 24 23 24 24 26 27 25 21 19 18 18 17 18 20 22 24 25 27 29 31 34 36 39 41 42 41 40 41 nan nan nan nan nan nan nan nan nan nan nan nan nan nan nan nan nan nan nan nan nan nan nan nan nan nan nan nan nan nan nan
21 21 20 21 23 22 22 21 21 20 19 17 15 14 15 16 17 18 20 23 26 28 30 33 36 39 41 43 43 42 45 nan nan nan nan nan nan nan nan nan nan nan nan nan nan nan nan nan nan nan nan nan nan nan nan nan nan nan nan nan nan nan nan
21 22 21 21 21 22 22 22 23 22 22 22 20 18 17 17 18 19 21 24 27 29 32 36 39 41 43 44 45 47 53 nan nan nan nan nan nan nan nan nan nan nan nan nan nan nan nan nan nan nan nan nan nan nan nan nan nan nan nan nan nan nan nan
22 nan 22 24 26 24 25 26 25 24 25 25 23 21 20 20 20 21 23 25 28 30 34 38 41 43 44 44 47 54 59 53 nan 40 nan nan nan nan nan nan nan nan nan nan nan nan nan nan nan nan nan nan nan nan nan nan nan nan nan nan nan nan nan
nan nan nan nan 29 27 25 23 25 29 30 28 26 24 23 23 24 26 28 29 31 33 36 40 43 43 45 47 53 57 57 49 nan nan nan nan nan nan nan nan nan nan nan nan nan nan nan nan nan nan nan nan nan nan nan nan nan nan nan nan nan nan nan
24 nan nan nan 27 27 27 27 28 29 30 30 27 26 25 26 28 31 32 33 34 37 39 42 45 47 49 54 57 59 57 48 48 nan nan nan nan nan nan nan nan nan nan nan nan nan nan nan nan nan nan nan nan nan nan nan nan nan nan nan nan nan nan
nan nan 27 28 29 29 28 28 28 29 29 28 26 26 27 27 27 28 28 30 34 37 40 47 53 54 54 56 58 57 59 53 52 47 nan nan nan nan nan nan nan nan nan nan nan nan nan nan nan nan nan nan nan nan nan nan nan nan nan nan nan nan nan
nan nan nan 31 31 31 29 29 29 28 27 25 27 28 29 29 30 31 33 37 41 43 45 52 53 54 53 55 57 57 59 58 53 46 39 nan nan nan nan nan nan nan nan nan nan nan nan nan nan nan nan nan nan nan nan nan nan nan nan nan nan nan nan
nan nan nan nan nan 32 31 30 30 28 25 24 27 30 32 32 33 33 36 41 45 48 51 53 52 51 51 52 54 55 56 53 47 39 nan 39 nan nan nan nan nan nan nan nan nan nan nan nan nan nan nan nan nan nan nan nan nan nan nan nan nan nan nan
32 32 34 34 34 34 34 36 36 31 27 27 30 32 33 34 34 37 39 43 46 51 55 54 52 51 50 52 54 56 55 50 45 42 43 45 nan nan nan nan nan nan nan nan nan nan nan nan nan nan nan nan nan nan nan nan nan nan nan nan nan nan nan
nan nan 34 36 37 37 37 39 38 34 32 35 38 38 39 39 39 38 42 47 50 53 54 53 53 52 53 56 59 60 56 49 44 43 42 43 44 nan nan nan nan nan nan nan nan nan nan nan nan nan nan nan nan nan nan nan 32 nan nan nan nan nan nan
nan 34 35 37 38 39 40 42 40 36 37 41 42 42 43 42 42 43 47 51 54 56 56 57 54 55 55 56 58 56 49 45 44 43 42 42 nan nan nan nan nan nan nan nan nan nan nan nan nan nan nan nan nan nan nan 33 33 34 33 nan nan nan nan
37 36 35 37 37 37 40 43 43 41 42 45 46 46 47 42 43 47 51 54 55 54 56 55 55 53 53 54 53 47 41 44 44 43 42 41 nan nan nan nan nan nan nan nan nan nan 27 28 nan nan nan nan nan nan nan 34 35 35 33 34 38 nan nan
nan 39 nan 38 40 39 40 40 41 43 45 46 48 50 49 46 46 51 52 52 55 54 56 56 56 55 54 54 54 48 43 46 44 42 42 42 nan nan nan nan nan nan 23 23 23 23 25 27 nan nan 32 34 nan nan nan 34 34 34 35 40 44 nan nan
nan nan nan nan nan nan 37 38 39 42 47 48 49 51 50 49 51 55 55 53 52 54 55 55 55 55 53 53 52 47 42 43 45 45 43 nan nan nan nan nan 24 22 23 23 22 24 26 28 31 32 33 33 36 nan 36 32 32 36 42 nan nan nan nan
nan nan 43 42 41 42 41 39 39 43 48 50 48 49 51 54 59 60 57 54 53 53 53 53 53 52 52 53 53 49 45 43 44 46 43 nan nan nan nan 28 23 21 25 24 23 23 25 28 31 31 32 34 nan 41 35 28 32 nan nan nan nan nan nan
44 45 46 46 47 47 42 40 43 47 49 50 52 51 53 58 62 60 55 52 52 52 53 53 53 53 52 52 52 51 49 47 47 46 39 32 nan nan 31 31 27 25 28 25 25 24 27 32 32 31 34 37 39 35 31 31 nan nan nan nan nan nan nan
46 48 48 48 46 44 44 46 51 50 49 50 52 54 57 60 59 55 52 50 52 53 53 54 54 53 51 51 51 51 50 47 47 43 35 nan nan 31 33 32 29 30 32 31 30 27 30 34 34 37 44 43 36 31 33 40 nan nan nan nan nan nan nan
47 46 48 47 46 46 46 46 48 49 49 50 53 55 57 57 53 50 49 51 51 52 52 51 50 49 47 47 48 49 48 46 45 41 35 34 34 35 36 35 34 35 36 33 28 25 29 33 36 44 45 35 30 nan nan nan nan nan nan nan nan nan nan
51 51 48 47 47 49 49 50 50 51 53 52 53 53 52 49 46 46 48 50 51 50 49 48 47 46 45 46 48 48 47 45 42 39 38 38 40 42 41 38 39 39 36 30 27 30 36 37 38 43 40 32 32 nan nan nan nan nan nan nan nan nan nan
52 51 51 51 51 52 55 56 56 56 56 54 51 49 46 45 46 47 49 51 50 48 47 46 46 46 46 46 46 46 45 43 43 43 42 41 42 41 37 33 33 32 29 27 32 41 45 42 42 44 40 32 37 nan 43 46 nan nan nan nan nan nan nan
53 53 55 55 57 60 60 55 53 53 53 52 48 46 44 45 48 51 52 49 47 47 46 46 46 47 46 46 46 45 45 45 45 45 43 40 37 33 30 31 30 29 30 33 40 46 48 45 43 44 41 nan nan nan nan 48 49 nan nan nan nan nan nan
54 56 56 56 58 58 52 42 41 44 47 47 48 47 47 48 51 49 48 44 45 45 45 45 45 45 45 45 46 47 48 47 46 43 39 33 28 25 28 30 32 35 38 41 41 44 48 46 43 41 nan nan nan nan 47 48 48 nan nan nan nan nan nan
57 57 56 53 49 45 39 36 38 42 44 46 47 48 47 47 46 45 41 41 43 44 45 45 45 46 46 46 47 48 47 45 40 35 27 24 25 28 31 33 36 41 42 40 41 46 48 46 43 42 nan nan nan 48 48 48 49 nan nan nan nan nan nan
54 54 52 46 40 38 36 36 38 40 42 45 44 45 45 45 44 43 42 42 42 43 44 46 47 47 47 47 48 48 46 43 36 31 31 31 33 35 35 36 39 41 41 41 46 51 50 45 44 43 nan 44 46 47 48 48 48 nan nan nan nan nan nan
45 42 40 39 35 34 33 33 35 39 43 44 44 44 44 44 44 44 44 43 43 43 44 nan nan 45 46 48 47 44 40 36 34 34 35 36 39 39 37 38 40 41 43 47 51 53 50 49 47 nan nan 45 46 46 46 47 nan nan nan nan nan nan nan
37 36 35 35 33 34 34 36 39 42 45 44 43 44 44 45 45 46 46 46 46 46 47 48 47 nan 41 39 35 nan nan nan 33 nan nan 41 41 41 42 42 43 46 48 48 49 48 49 49 nan nan 46 47 47 48 47 nan nan nan nan nan nan nan nan
34 35 35 35 36 36 37 39 42 43 43 42 42 44 45 46 47 46 47 48 47 48 52 52 49 nan nan nan nan nan nan nan nan nan nan nan 47 49 51 52 52 48 49 50 48 48 46 50 48 48 49 49 nan nan nan nan nan nan nan nan nan nan nan
37 37 36 35 36 36 37 39 40 42 43 42 43 46 47 47 47 47 47 47 47 49 nan 51 46 nan nan nan nan nan nan nan nan nan nan 51 51 51 52 50 50 52 52 50 49 49 53 56 nan nan nan nan nan nan nan nan nan nan nan nan nan nan nan
33 32 32 31 33 35 37 38 40 42 44 44 46 47 47 47 47 47 47 47 47 49 48 47 nan nan nan nan nan nan 46 nan nan nan nan 50 49 49 49 50 51 48 48 51 50 50 52 nan nan nan nan nan nan nan nan nan nan nan nan nan nan nan nan
Wind_Direction
340 340 342 345 346 350 346 334 318 309 308 307 307 307 306 306 308 305 305 308 315 320 321 321 321 316 317 315 312 309 309 306 302 nan nan nan nan nan nan nan nan nan nan nan nan nan nan nan nan nan nan nan nan nan nan 317 nan nan nan nan nan nan nan
343 347 351 350 353 356 349 334 320 310 306 305 304 308 307 309 307 307 309 311 321 329 327 325 323 321 321 319 314 311 311 309 304 nan nan nan nan nan nan nan nan nan nan nan nan nan nan nan nan nan nan 311 nan nan nan nan nan nan nan nan nan nan nan
348 353 352 350 353 353 348 340 334 327 320 310 304 301 307 312 313 318 317 320 328 329 325 327 327 325 321 318 315 315 312 307 304 nan nan nan nan nan nan nan nan nan nan nan nan nan nan nan nan nan nan nan nan nan nan nan nan nan nan nan nan nan nan
345 347 345 349 353 350 347 347 343 337 333 327 321 319 317 318 317 319 324 328 331 328 330 332 327 325 322 318 315 311 309 308 307 nan nan nan nan nan nan nan nan nan nan nan nan nan nan nan nan nan 307 nan nan nan nan nan nan nan nan nan nan nan nan
336 334 332 340 347 344 343 343 341 341 341 338 334 329 327 326 321 319 322 322 325 332 336 332 325 321 316 313 309 308 308 306 nan nan nan nan nan nan nan nan nan nan nan nan nan nan nan nan nan nan nan nan nan nan nan nan nan nan nan nan nan nan nan
321 322 330 338 343 344 343 342 344 348 348 343 336 329 328 327 320 325 324 320 323 326 320 317 322 320 317 312 306 302 297 nan nan nan nan nan nan nan nan nan nan nan nan nan nan nan nan nan nan nan nan nan nan nan nan nan nan nan nan nan nan nan nan
311 320 329 337 340 340 340 341 344 347 349 349 339 329 319 314 322 325 316 319 323 326 327 327 325 317 313 306 305 303 304 nan nan nan nan nan nan nan nan nan nan nan nan nan nan nan nan nan nan nan nan nan nan nan nan nan nan nan nan nan nan nan nan
307 317 332 335 337 337 339 341 340 343 341 331 321 324 326 324 318 317 320 327 326 325 325 325 319 316 309 304 305 309 306 nan nan nan nan nan nan nan nan nan nan nan nan nan nan nan nan nan nan nan nan nan nan nan nan nan nan nan nan nan nan nan nan
309 325 332 333 333 339 341 339 342 341 342 338 335 337 335 326 323 324 328 325 321 326 329 324 319 311 306 309 311 310 304 296 nan nan nan nan nan nan nan nan nan nan nan nan nan nan nan nan nan nan nan nan nan nan nan nan nan nan nan nan nan nan nan
317 322 325 334 342 338 333 332 329 336 341 338 330 321 320 322 322 320 321 323 323 329 328 318 312 311 311 313 313 308 293 nan nan nan nan nan nan nan nan nan nan nan nan nan nan nan nan nan nan nan nan nan nan nan nan nan nan nan nan nan nan nan nan
313 318 326 339 337 333 325 318 326 338 343 343 338 328 320 321 322 325 327 325 326 328 324 315 312 314 316 315 310 296 284 nan nan nan nan nan nan nan nan nan nan nan nan nan nan nan nan nan nan nan nan nan nan nan nan nan nan nan nan nan nan nan nan
315 nan 330 339 337 326 335 342 337 336 339 339 336 329 323 324 328 330 329 328 327 323 316 318 315 317 315 310 300 289 284 288 nan 299 nan nan nan nan nan nan nan nan nan nan nan nan nan nan nan nan nan nan nan nan nan nan nan nan nan nan nan nan nan
nan nan nan nan 332 332 337 329 333 339 339 335 331 326 324 326 329 329 327 326 323 319 319 317 313 310 307 295 288 293 295 292 nan nan nan nan nan nan nan nan nan nan nan nan nan nan nan nan nan nan nan nan nan nan nan nan nan nan nan nan nan nan nan
313 nan nan nan 320 325 330 336 335 333 333 329 324 323 323 323 326 326 324 325 322 321 317 310 304 299 297 297 302 306 303 297 288 nan nan nan nan nan nan nan nan nan nan nan nan nan nan nan nan nan nan nan nan nan nan nan nan nan nan nan nan nan nan
nan nan 322 324 325 322 326 330 330 331 328 326 323 325 327 322 319 317 318 319 317 315 313 300 299 302 307 309 309 313 312 304 292 291 nan nan nan nan nan nan nan nan nan nan nan nan nan nan nan nan nan nan nan nan nan nan nan nan nan nan nan nan nan
nan nan nan 323 321 319 321 327 327 327 324 321 325 330 324 319 315 316 321 323 320 318 308 302 305 308 311 314 314 314 310 300 293 293 297 nan nan nan nan nan nan nan nan nan nan nan nan nan nan nan nan nan nan nan nan nan nan nan nan nan nan nan nan
nan nan nan nan nan 312 316 315 308 303 307 314 317 321 321 317 315 316 316 315 316 314 305 306 309 312 314 313 310 306 304 301 299 302 nan 304 nan nan nan nan nan nan nan nan nan nan nan nan nan nan nan nan nan nan nan nan nan nan nan nan nan nan nan
302 299 298 300 302 304 306 306 309 307 308 312 313 312 310 309 308 308 316 312 308 304 307 310 312 312 309 309 311 313 311 305 308 319 322 318 nan nan nan nan nan nan nan nan nan nan nan nan nan nan nan nan nan nan nan nan nan nan nan nan nan nan nan
nan nan 294 295 297 302 304 306 306 307 310 314 317 317 316 312 307 308 304 305 305 305 306 308 310 312 313 315 315 316 317 317 319 323 326 326 327 nan nan nan nan nan nan nan nan nan nan nan nan nan nan nan nan nan nan nan 316 nan nan nan nan nan nan
nan 288 290 293 297 302 306 305 304 308 313 316 316 318 314 310 311 310 309 308 308 309 310 311 314 316 316 315 317 317 319 324 326 326 325 323 nan nan nan nan nan nan nan nan nan nan nan nan nan nan nan nan nan nan nan 311 315 319 318 nan nan nan nan
282 287 292 294 295 298 298 299 299 303 308 313 313 308 305 306 305 307 310 310 309 309 310 311 311 312 312 312 313 315 321 321 324 326 323 320 nan nan nan nan nan nan nan nan nan nan 309 313 nan nan nan nan nan nan nan 312 315 313 313 314 316 nan nan
nan 286 nan 290 293 292 290 293 297 301 304 303 304 306 306 306 307 310 311 309 308 308 308 309 309 309 311 316 317 318 322 323 326 323 317 306 nan nan nan nan nan nan 304 298 299 305 311 314 nan nan 304 306 nan nan nan 308 304 306 308 312 315 nan nan
nan nan nan nan nan nan 283 281 285 290 294 300 303 304 306 305 306 306 306 304 303 305 306 308 311 313 316 315 313 317 321 322 320 315 305 nan nan nan nan nan 317 310 299 300 306 310 313 312 308 304 307 310 307 nan 306 302 301 307 310 nan nan nan nan
nan nan 273 272 268 268 272 275 277 284 293 297 297 298 301 303 303 303 302 300 301 304 307 309 311 311 312 314 314 318 322 322 317 307 302 nan nan nan nan 315 308 301 295 302 308 308 307 303 301 303 309 311 nan 305 302 298 302 nan nan nan nan nan nan
274 275 273 273 277 276 275 279 282 286 288 292 296 297 299 302 304 301 300 300 302 305 307 308 307 308 311 313 316 319 319 315 312 310 311 315 nan nan 311 313 310 302 296 300 298 296 292 293 298 301 306 304 301 300 302 304 nan nan nan nan nan nan nan
276 277 276 274 272 272 277 281 283 285 290 296 298 296 298 300 301 298 297 300 301 305 307 306 307 310 310 310 313 314 312 315 318 316 314 nan nan 304 308 304 299 297 297 297 295 293 296 299 298 305 310 308 298 299 306 308 nan nan nan nan nan nan nan
265 267 271 273 276 277 279 281 284 290 294 291 293 297 298 298 294 293 294 297 301 303 305 305 303 303 305 307 308 310 312 315 320 321 313 301 297 301 302 297 291 288 288 288 286 292 299 302 302 310 318 306 293 nan nan nan nan nan nan nan nan nan nan
263 264 265 268 272 274 276 277 278 281 284 288 295 297 297 293 290 288 291 295 296 296 293 292 296 298 299 302 306 308 311 314 317 313 300 293 297 303 304 296 291 292 293 293 288 289 299 305 304 308 311 300 301 nan nan nan nan nan nan nan nan nan nan
261 265 269 271 273 275 277 278 279 281 285 288 291 291 290 288 287 284 281 281 284 287 288 290 291 295 297 298 302 306 307 306 307 306 300 295 296 303 306 299 297 300 300 296 293 298 302 303 306 308 301 296 303 nan 310 311 nan nan nan nan nan nan nan
266 268 270 272 274 275 276 275 275 278 282 285 284 281 278 279 279 278 279 282 283 285 287 288 291 293 296 297 298 299 301 303 305 305 301 297 296 301 301 297 297 295 293 296 300 301 302 306 309 307 306 nan nan nan nan 308 307 nan nan nan nan nan nan
276 275 274 275 275 274 273 275 278 280 280 280 279 277 278 278 280 281 281 281 282 283 285 287 289 291 292 294 297 299 302 302 304 305 299 295 297 298 292 288 290 292 295 299 301 302 304 304 305 307 nan nan nan nan 308 307 307 nan nan nan nan nan nan
275 275 274 273 273 274 273 274 277 278 279 278 278 278 278 278 280 281 280 281 282 283 285 286 287 289 292 295 297 301 302 302 298 295 290 278 280 288 286 287 290 295 298 300 300 298 300 304 308 308 nan nan nan 308 309 307 306 nan nan nan nan nan nan
274 273 272 273 273 273 274 278 279 279 279 278 277 279 278 279 279 281 282 282 284 286 288 289 292 295 299 302 302 302 299 297 298 291 272 268 277 282 282 285 292 295 297 298 300 302 306 307 304 303 nan 303 306 306 305 305 307 nan nan nan nan nan nan
271 268 265 265 267 274 276 277 278 277 278 278 278 278 279 280 282 284 284 283 283 284 286 nan nan 295 296 294 292 291 291 289 285 281 278 280 287 290 287 290 294 297 297 298 300 303 304 303 304 nan nan 306 305 304 306 307 nan nan nan nan nan nan nan
270 269 268 271 274 276 280 277 277 277 279 280 280 280 280 283 284 284 282 284 285 287 287 288 290 nan 297 299 300 nan nan nan 293 nan nan 290 284 283 283 286 288 289 288 288 293 297 300 304 nan nan 305 304 306 308 311 nan nan nan nan nan nan nan nan
272 274 275 276 275 277 277 278 280 280 281 281 281 282 284 284 284 284 286 285 287 289 289 292 295 nan nan nan nan nan nan nan nan nan nan nan 293 292 289 284 286 287 292 295 291 291 294 300 302 303 301 299 nan nan nan nan nan nan nan nan nan nan nan
279 278 278 277 278 279 280 280 280 281 282 283 282 282 283 284 285 285 285 287 290 292 nan 293 296 nan nan nan nan nan nan nan nan nan nan 293 295 296 295 293 288 285 285 290 291 291 291 293 nan nan nan nan nan nan nan nan nan nan nan nan nan nan nan
276 279 279 279 282 282 281 281 282 284 285 283 282 283 284 285 285 286 288 290 292 289 288 292 nan nan nan nan nan nan 290 nan nan nan nan 294 294 295 295 295 296 293 290 290 289 287 287 nan nan nan nan nan nan nan nan nan nan nan nan nan nan nan nan